[[{"header":{"parameterUnit":"m.s-1","parameterCategory":1,"la1":30.2992,"la2":30.254,"lo1":-89.0895,"lo2":-89.0443,"dy":0.0025,"dx":0.0025,"nx":19,"ny":19,"refTime":"2026-04-12T21:00:00:Z","depth":0,"parameterNumber":2,"parameterNumberName":"U-component_of_WINDS"},"data":[0,0,0,-3.2064,-3.2065,-3.2102,-3.2102,-3.2162,-3.2163,0,0,0,0,0,0,0,0,0,0,0,-3.2062,-3.2062,-3.2064,-3.2065,-3.2102,-3.2102,-3.2162,-3.2163,0,0,0,0,0,0,0,0,0,0,0,-3.2061,-3.2062,-3.2063,-3.2066,-3.2102,-3.2102,-3.2162,-3.213,0,0,0,0,0,0,0,0,0,0,-3.2092,-3.2097,-3.2062,-3.2063,-3.2066,-3.2102,-3.2102,-3.2128,-3.2132,-3.2152,0,-3.2171,0,-3.2168,-3.2168,-3.2168,0,0,0,-3.206,-3.2094,-3.2097,-3.2063,-3.2066,-3.2102,-3.2084,-3.213,-3.2134,-3.2157,-3.2172,-3.2174,-3.2169,-3.2168,-3.2169,-3.2304,-3.2305,0,0,-3.2058,-3.2072,-3.2094,-3.21,-3.2095,-3.2083,-3.2085,-3.2132,-3.215,-3.2172,-3.2175,-3.217,-3.2169,-3.2169,-3.2303,-3.2304,0,0,0,-3.2056,-3.2071,-3.2072,-3.2098,-3.2103,-3.2084,-3.2086,-3.2147,-3.2147,-3.2175,-3.2171,-3.2169,-3.217,-3.2302,-3.2303,-3.2362,0,0,0,-3.2054,-3.207,-3.2072,-3.2081,-3.2103,-3.2126,-3.2101,-3.2143,-3.2148,-3.217,-3.2169,-3.2171,-3.2301,-3.2302,-3.2358,-3.2386,0,0,0,-3.2057,-3.207,-3.2078,-3.2082,-3.2098,-3.2124,-3.2126,-3.2144,-3.2146,-3.2168,-3.2171,-3.23,-3.2302,-3.2355,-3.2381,-3.2426,0,0,0,-3.2063,-3.2129,-3.2079,-3.2152,-3.2098,-3.2161,-3.2126,-3.2172,-3.2198,-3.2169,-3.2301,-3.2303,-3.2354,-3.2377,-3.2423,-3.2466,-3.2486,0,0,-3.2155,-3.2141,-3.2183,-3.2139,-3.2215,-3.2154,-3.2239,-3.2249,-3.2238,-3.2282,-3.2286,-3.2359,-3.238,-3.2425,-3.2594,-3.261,0,0,0,-3.2217,-3.2247,-3.2264,-3.2289,-3.2299,-3.231,-3.2306,-3.231,-3.2348,-3.2264,-3.2388,-3.24,-3.2426,-3.2446,-3.2459,-3.2481,-3.2313,-3.2313,-3.2313,-3.2366,-3.2349,-3.2417,-3.2405,-3.2431,-3.2428,-3.2447,-3.2452,-3.2427,-3.2457,-3.2469,-3.2573,-3.2598,-3.2607,-3.263,-3.2492,-3.2492,-3.2492,-3.2493,-3.2498,-3.2537,-3.2505,-3.2559,-3.2541,-3.2587,-3.2587,-3.2568,-3.2608,-3.2562,-3.2584,-3.2534,-3.2625,-3.2644,-3.2497,-3.2496,-3.2496,-3.2495,-3.2495,-3.2592,-3.2608,-3.2613,-3.2651,-3.2682,-3.2668,-3.2709,-3.2691,-3.2675,-3.2697,-3.2709,-3.2708,-3.2704,-3.2705,-3.2705,-3.2705,-3.2706,-3.2706,-3.2706,-3.2688,-3.2691,-3.2727,-3.2746,-3.2761,-3.278,-3.2779,-3.2794,-3.2806,-3.279,-3.279,-3.2762,-3.2638,-3.2606,-3.2712,-3.2711,-3.271,-3.2709,-3.2709,-3.2825,-3.2792,-3.2848,-3.2863,-3.2884,-3.2917,-3.2896,-3.2928,-3.2938,-3.2959,-3.2928,-3.2839,-3.2823,-3.2812,-3.2786,-3.2931,-3.2931,-3.2931,-3.2931,-3.2904,-3.2895,-3.2949,-3.2976,-3.3,-3.2987,-3.3052,-3.3054,-3.305,-3.3055,-3.3032,-3.2997,-3.2986,-3.2976,-3.2962,-3.2937,-3.3118,-3.3118,-3.3118,-3.2987,-3.298,-3.3038,-3.3034,-3.305,-3.3065,-3.3126,-3.3158,-3.3147,-3.3125,-3.3059,-3.3051,-3.2993,-3.2976,-3.2949,-3.2927,-3.2881,0,0]},{"header":{"parameterUnit":"m.s-1","parameterCategory":1,"la1":30.2992,"la2":30.254,"lo1":-89.0895,"lo2":-89.0443,"dy":0.0025,"dx":0.0025,"nx":19,"ny":19,"refTime":"2026-04-12T21:00:00:Z","depth":0,"parameterNumber":3,"parameterNumberName":"V-component_of_WINDS"},"data":[0,0,0,3.3005,3.3005,3.2991,3.2991,3.2972,3.2971,0,0,0,0,0,0,0,0,0,0,0,3.301,3.301,3.3005,3.3005,3.2991,3.2991,3.2972,3.2971,0,0,0,0,0,0,0,0,0,0,0,3.301,3.301,3.301,3.3005,3.2991,3.2991,3.2972,3.2982,0,0,0,0,0,0,0,0,0,0,3.2996,3.3001,3.301,3.301,3.3005,3.2991,3.2991,3.2983,3.2982,3.2978,0,3.2976,0,3.2974,3.297,3.297,0,0,0,3.3004,3.3002,3.2998,3.301,3.3005,3.2991,3.2997,3.2982,3.2981,3.2976,3.2976,3.2975,3.2973,3.297,3.297,3.2959,3.2959,0,0,3.3004,3.3007,3.2999,3.2998,3.3001,3.2997,3.2996,3.2981,3.298,3.2976,3.2975,3.2973,3.297,3.297,3.2959,3.2959,0,0,0,3.3008,3.3008,3.3004,3.2998,3.2996,3.2997,3.2996,3.2981,3.298,3.2975,3.2973,3.297,3.297,3.2959,3.2959,3.2962,0,0,0,3.3008,3.3009,3.3004,3.3006,3.2996,3.2988,3.2996,3.2981,3.2979,3.2973,3.297,3.2969,3.2959,3.2959,3.2962,3.2963,0,0,0,3.3011,3.301,3.3008,3.3006,3.3,3.2989,3.2987,3.298,3.2978,3.297,3.2969,3.2958,3.2959,3.2962,3.2963,3.2961,0,0,0,3.3013,3.3009,3.3008,3.3003,3.3001,3.2992,3.2987,3.2979,3.2973,3.297,3.2959,3.2959,3.2962,3.2962,3.2961,3.2961,3.2961,0,0,3.3009,3.3009,3.3006,3.3005,3.2998,3.2994,3.2987,3.2977,3.2972,3.2963,3.2963,3.2962,3.2963,3.2961,3.2962,3.2962,0,0,0,3.3006,3.3003,3.3001,3.2997,3.2992,3.2987,3.2979,3.2976,3.2969,3.2969,3.2962,3.2962,3.2961,3.296,3.296,3.296,3.2959,3.2959,3.2959,3.3002,3.3,3.2995,3.2992,3.2988,3.2982,3.2978,3.2973,3.2969,3.2968,3.2964,3.2965,3.2965,3.2965,3.2965,3.2964,3.2964,3.2964,3.2964,3.2996,3.2993,3.2992,3.2988,3.2985,3.298,3.2975,3.2974,3.2968,3.2967,3.2966,3.2964,3.2966,3.2965,3.2965,3.2965,3.2965,3.2965,3.2965,3.2993,3.2991,3.299,3.2986,3.2983,3.298,3.2976,3.2974,3.2971,3.297,3.2967,3.2967,3.2966,3.2969,3.2969,3.2969,3.2969,3.2969,3.2969,3.299,3.2988,3.2987,3.2984,3.2983,3.298,3.2977,3.2975,3.2972,3.297,3.297,3.2967,3.2967,3.2967,3.2969,3.2969,3.2969,3.2969,3.2969,3.2983,3.2985,3.2982,3.2982,3.2979,3.2978,3.2976,3.2973,3.2971,3.2969,3.2968,3.2969,3.2967,3.2966,3.2966,3.2968,3.2968,3.2968,3.2968,3.298,3.298,3.2979,3.2978,3.2976,3.2976,3.2973,3.2971,3.2969,3.2967,3.2967,3.2967,3.2967,3.2965,3.2965,3.2965,3.2966,3.2966,3.2966,3.2976,3.2977,3.2975,3.2976,3.2975,3.2974,3.2971,3.297,3.2967,3.2966,3.2967,3.2967,3.2967,3.2967,3.2963,3.2963,3.2963,0,0]}]]